Date String (YYYY-MM-DD hh:mm:ss) UTC,Instrument flags,Ambient pressure (hPa),Sample flow (lpm),Bypass flow (lpm),Sample temperature (°C),Ambient temperature (°C),ASC tube jacket temperature (°C),LED temperature (°C),Box temperature (°C),Sample RH (%),Span deviation,Mass concentration (μg/m³),Mass concentration (μg/m³),Mass concentration (μg/m³)
DateTimeUTC,F1_M11,P_M11,Q1_M11,Q2_M11,T1_M11,T2_M11,T3_M11,T4_M11,T5_M11,U1_M11,ZSPAN_M11,X0_M11,X2_M11,X1_M11
2023-05-04 20:00:00,,0824.6,5.00,0.00,28.6,27.1,00.0,36.9,30.1,18.0,0000.0,0007.72,0003.48,0002.19
2023-05-04 20:01:00,,0824.6,4.99,0.00,28.6,27.1,00.0,36.9,30.1,18.4,0000.0,0007.72,0003.49,0002.17
2023-05-04 20:02:00,,0824.5,4.99,0.00,28.6,27.1,00.0,36.9,30.1,18.3,0000.0,0007.81,0003.47,0002.16
2023-05-04 20:03:00,,0824.6,5.00,0.00,28.6,27.1,00.0,37.0,30.2,18.1,0000.0,0008.18,0003.46,0002.16
2023-05-04 20:04:00,,0824.6,5.00,0.00,28.7,27.1,00.0,37.0,30.2,18.1,0000.0,0008.11,0003.43,0002.15
2023-05-04 20:05:00,,0824.7,5.00,0.00,28.7,27.2,00.0,37.0,30.2,18.4,0000.0,0008.66,0003.41,0002.14
2023-05-04 20:06:00,,0824.7,5.00,0.00,28.7,27.2,00.0,37.0,30.2,18.5,0000.0,0008.66,0003.38,0002.11
2023-05-04 20:07:00,,0824.7,5.00,0.00,28.7,27.2,00.0,37.0,30.2,18.1,0000.0,0008.73,0003.39,0002.08
2023-05-04 20:08:00,,0824.6,5.00,0.00,28.7,27.2,00.0,37.0,30.2,17.2,0000.0,0009.08,0003.40,0002.09
2023-05-04 20:09:00,,0824.6,4.99,0.00,28.7,27.3,00.0,37.0,30.3,16.8,0000.0,0009.49,0003.40,0002.07
2023-05-04 20:10:00,,0824.6,4.99,0.00,28.7,27.3,00.0,37.0,30.3,17.3,0000.0,0010.15,0003.38,0002.09
2023-05-04 20:11:00,,0824.6,5.01,0.00,28.8,27.3,00.0,37.0,30.2,17.1,0000.0,0010.07,0003.38,0002.10
2023-05-04 20:12:00,,0824.5,5.01,0.00,28.8,27.4,00.0,37.1,30.2,17.5,0000.0,0010.09,0003.38,0002.11
2023-05-04 20:13:00,,0824.4,5.01,0.00,28.8,27.4,00.0,37.1,30.3,17.6,0000.0,0009.94,0003.40,0002.12
2023-05-04 20:14:00,,0824.4,4.99,0.00,28.8,27.4,00.0,37.1,30.3,17.4,0000.0,0010.21,0003.58,0002.14
2023-05-04 20:15:00,,0824.4,5.00,0.00,28.8,27.4,00.0,37.1,30.3,16.8,0000.0,0010.43,0003.67,0002.16
2023-05-04 20:16:00,,0824.4,5.00,0.00,28.8,27.4,00.0,37.1,30.4,16.2,0000.0,0009.91,0003.71,0002.18
2023-05-04 20:17:00,,0824.4,5.00,0.00,28.8,27.4,00.0,37.1,30.4,16.0,0000.0,0009.95,0003.76,0002.21
2023-05-04 20:18:00,,0824.4,5.00,0.00,28.8,27.4,00.0,37.1,30.4,15.7,0000.0,0009.98,0003.77,0002.22
2023-05-04 20:19:00,,0824.3,5.01,0.00,28.8,27.4,00.0,37.1,30.4,15.5,0000.0,0009.46,0003.78,0002.23
2023-05-04 20:20:00,,0824.2,5.01,0.00,28.8,27.4,00.0,37.1,30.4,15.5,0000.0,0009.27,0003.81,0002.24
2023-05-04 20:21:00,,0824.2,4.99,0.00,28.8,27.4,00.0,37.1,30.4,15.5,0000.0,0008.65,0003.82,0002.24
2023-05-04 20:22:00,,0824.3,4.99,0.00,28.9,27.4,00.0,37.2,30.4,15.5,0000.0,0008.79,0003.88,0002.26
2023-05-04 20:23:00,,0824.2,5.00,0.00,28.9,27.5,00.0,37.2,30.4,15.8,0000.0,0009.05,0003.91,0002.28
2023-05-04 20:24:00,,0824.2,5.00,0.00,28.9,27.5,00.0,37.2,30.4,16.1,0000.0,0008.99,0003.91,0002.29
2023-05-04 20:25:00,,0824.2,5.01,0.00,28.9,27.5,00.0,37.2,30.4,15.8,0000.0,0008.52,0003.78,0002.28
2023-05-04 20:26:00,,0824.1,5.01,0.00,28.9,27.5,00.0,37.2,30.4,16.0,0000.0,0008.27,0003.72,0002.27
2023-05-04 20:27:00,,0824.2,4.99,0.00,28.9,27.6,00.0,37.2,30.4,16.4,0000.0,0009.22,0003.69,0002.25
2023-05-04 20:28:00,,0824.2,5.00,0.00,28.9,27.6,00.0,37.3,30.5,15.9,0000.0,0009.15,0003.66,0002.26
2023-05-04 20:29:00,,0824.1,5.00,0.00,29.0,27.6,00.0,37.3,30.5,15.9,0000.0,0009.03,0003.63,0002.27
2023-05-04 20:30:00,,0824.0,5.00,0.00,29.0,27.6,00.0,37.3,30.5,15.9,0000.0,0009.30,0003.63,0002.27
2023-05-04 20:31:00,,0824.0,5.00,0.00,29.0,27.7,00.0,37.3,30.6,15.9,0000.0,0010.13,0003.61,0002.27
2023-05-04 20:32:00,,0824.0,5.00,0.00,29.0,27.7,00.0,37.3,30.6,16.1,0000.0,0010.10,0003.65,0002.28
2023-05-04 20:33:00,,0824.0,5.00,0.00,29.0,27.7,00.0,37.3,30.6,15.8,0000.0,0010.02,0003.62,0002.29
2023-05-04 20:34:00,,0824.0,5.00,0.00,29.1,27.7,00.0,37.3,30.6,15.9,0000.0,0009.75,0003.57,0002.29
2023-05-04 20:35:00,,0824.0,4.99,0.00,29.1,27.7,00.0,37.3,30.6,15.8,0000.0,0009.65,0003.57,0002.30
2023-05-04 20:36:00,,0824.0,5.00,0.00,29.1,27.8,00.0,37.4,30.6,15.5,0000.0,0009.60,0003.55,0002.30
2023-05-04 20:37:00,,0824.0,5.00,0.00,29.1,27.8,00.0,37.4,30.6,15.5,0000.0,0009.67,0003.56,0002.31
2023-05-04 20:38:00,,0824.0,5.00,0.00,29.1,27.8,00.0,37.4,30.6,15.6,0000.0,0008.85,0003.58,0002.32
2023-05-04 20:39:00,,0824.0,5.00,0.00,29.1,27.8,00.0,37.4,30.7,16.0,0000.0,0008.89,0003.66,0002.34
2023-05-04 20:40:00,,0824.0,4.99,0.00,29.1,27.9,00.0,37.4,30.7,15.9,0000.0,0009.21,0003.76,0002.35
2023-05-04 20:41:00,,0824.0,4.99,0.00,29.2,27.9,00.0,37.4,30.7,15.7,0000.0,0009.01,0003.77,0002.35
2023-05-04 20:42:00,,0823.9,5.01,0.00,29.2,27.9,00.0,37.4,30.7,15.4,0000.0,0008.26,0003.78,0002.36
2023-05-04 20:43:00,,0824.0,5.01,0.00,29.2,27.9,00.0,37.5,30.8,15.4,0000.0,0008.14,0003.79,0002.37
2023-05-04 20:44:00,,0823.9,5.00,0.00,29.2,27.9,00.0,37.5,30.8,15.5,0000.0,0008.22,0003.82,0002.37
2023-05-04 20:45:00,,0823.8,5.00,0.00,29.2,27.9,00.0,37.5,30.8,15.4,0000.0,0008.74,0003.85,0002.37
2023-05-04 20:46:00,,0823.9,5.00,0.00,29.2,27.9,00.0,37.5,30.8,15.1,0000.0,0008.77,0003.86,0002.37
2023-05-04 20:47:00,,0823.9,5.00,0.00,29.3,27.9,00.0,37.5,30.8,15.1,0000.0,0008.96,0003.89,0002.37
2023-05-04 20:48:00,,0823.9,5.00,0.00,29.3,27.9,00.0,37.5,30.8,15.3,0000.0,0009.10,0003.92,0002.38
2023-05-04 20:49:00,,0823.9,4.98,0.00,29.3,28.0,00.0,37.6,30.8,15.4,0000.0,0009.18,0003.93,0002.40
2023-05-04 20:50:00,,0823.8,5.01,0.00,29.3,28.0,00.0,37.6,30.8,15.1,0000.0,0009.03,0003.91,0002.42
2023-05-04 20:51:00,,0823.8,5.01,0.00,29.3,28.0,00.0,37.6,30.8,15.0,0000.0,0008.76,0003.84,0002.43
2023-05-04 20:52:00,,0823.8,5.00,0.00,29.3,28.0,00.0,37.6,30.9,15.1,0000.0,0008.81,0003.82,0002.44
2023-05-04 20:53:00,,0823.8,5.01,0.00,29.3,28.0,00.0,37.6,30.9,14.9,0000.0,0009.23,0003.82,0002.44
2023-05-04 20:54:00,,0823.8,5.00,0.00,29.4,28.0,00.0,37.6,30.9,15.0,0000.0,0009.55,0003.81,0002.42
2023-05-04 20:55:00,,0823.7,5.00,0.00,29.4,28.0,00.0,37.6,31.0,14.9,0000.0,0009.53,0003.81,0002.41
2023-05-04 20:56:00,,0823.8,5.00,0.00,29.4,28.1,00.0,37.7,30.9,14.8,0000.0,0009.08,0003.82,0002.43
2023-05-04 20:57:00,,0823.7,5.00,0.00,29.4,28.1,00.0,37.7,31.0,14.9,0000.0,0009.84,0003.85,0002.43
2023-05-04 20:58:00,,0823.7,5.00,0.00,29.4,28.1,00.0,37.7,31.0,15.0,0000.0,0010.02,0003.83,0002.44
2023-05-04 20:59:00,,0823.7,5.01,0.00,29.4,28.1,00.0,37.7,31.0,14.9,0000.0,0010.55,0003.78,0002.43
